Time,TemperatureF,DewpointF,PressureIn,WindDirection,WindDirectionDegrees,WindSpeedMPH,WindSpeedGustMPH,Humidity,HourlyPrecipIn,Conditions,Clouds,dailyrainin,SoftwareType,DateUTC
2013-03-14 00:07:00,52.3,50.0,30.02,NW,326,0.0,4.0,93,0.00,,,0.00,weatherlink.com 1.10,2013-03-14 07:07:00,
2013-03-14 00:22:00,52.1,51.0,30.02,NW,319,1.0,4.0,94,0.00,,,0.00,weatherlink.com 1.10,2013-03-14 07:22:00,
2013-03-14 00:37:00,52.6,50.0,30.01,NW,326,3.0,4.0,92,0.00,,,0.00,weatherlink.com 1.10,2013-03-14 07:37:00,
2013-03-14 00:52:00,52.9,50.0,30.00,West,275,3.0,4.0,91,0.00,,,0.00,weatherlink.com 1.10,2013-03-14 07:52:00,
2013-03-14 01:07:00,52.1,50.0,30.00,WNW,288,1.0,3.0,92,0.00,,,0.00,weatherlink.com 1.10,2013-03-14 08:07:00,
2013-03-14 01:22:00,52.2,50.0,29.99,WNW,298,0.0,3.0,92,0.00,,,0.00,weatherlink.com 1.10,2013-03-14 08:22:00,
2013-03-14 01:37:00,52.3,50.0,29.99,WNW,298,2.0,3.0,91,0.00,,,0.00,weatherlink.com 1.10,2013-03-14 08:37:00,
2013-03-14 01:52:00,52.3,50.0,29.98,WNW,297,3.0,3.0,91,0.00,,,0.00,weatherlink.com 1.10,2013-03-14 08:52:00,
2013-03-14 02:07:00,52.1,50.0,29.98,WNW,293,1.0,3.0,92,0.00,,,0.00,weatherlink.com 1.10,2013-03-14 09:07:00,
2013-03-14 02:22:00,53.7,50.0,29.99,SSW,213,5.0,10.0,88,0.00,,,0.00,weatherlink.com 1.10,2013-03-14 09:22:00,
2013-03-14 02:37:00,55.1,50.0,29.99,South,186,6.0,10.0,83,0.00,,,0.00,weatherlink.com 1.10,2013-03-14 09:37:00,
2013-03-14 02:52:00,54.5,50.0,29.99,SSW,199,4.0,7.0,84,0.00,,,0.00,weatherlink.com 1.10,2013-03-14 09:52:00,
2013-03-14 03:07:00,54.0,50.0,29.98,South,169,0.0,7.0,85,0.00,,,0.00,weatherlink.com 1.10,2013-03-14 10:07:00,
2013-03-14 03:23:00,53.7,50.0,29.98,SSE,157,3.0,7.0,86,0.00,,,0.00,weatherlink.com 1.10,2013-03-14 10:23:00,
2013-03-14 03:38:00,53.5,50.0,29.98,ESE,117,5.0,8.0,87,0.00,,,0.00,weatherlink.com 1.10,2013-03-14 10:38:00,
2013-03-14 03:53:00,52.5,49.0,29.98,SE,143,8.0,12.0,89,0.01,,,0.01,weatherlink.com 1.10,2013-03-14 10:53:00,
2013-03-14 04:08:00,52.5,49.0,29.97,ESE,119,9.0,14.0,88,0.01,,,0.01,weatherlink.com 1.10,2013-03-14 11:08:00,
2013-03-14 04:23:00,51.4,49.0,29.97,SE,139,7.0,12.0,90,0.01,,,0.01,weatherlink.com 1.10,2013-03-14 11:23:00,
2013-03-14 04:38:00,53.0,50.0,29.97,SSE,154,7.0,15.0,88,0.01,,,0.01,weatherlink.com 1.10,2013-03-14 11:38:00,
2013-03-14 04:53:00,54.1,50.0,29.98,SSW,203,12.0,18.0,86,0.00,,,0.01,weatherlink.com 1.10,2013-03-14 11:53:00,
2013-03-14 05:08:00,54.5,50.0,29.98,SSW,213,7.0,14.0,86,0.00,,,0.01,weatherlink.com 1.10,2013-03-14 12:08:00,
2013-03-14 05:23:00,54.2,50.0,29.98,SSW,207,7.0,11.0,86,0.00,,,0.01,weatherlink.com 1.10,2013-03-14 12:23:00,
2013-03-14 05:38:00,54.5,50.0,29.97,SE,146,1.0,10.0,85,0.00,,,0.01,weatherlink.com 1.10,2013-03-14 12:38:00,
2013-03-14 05:53:00,53.2,50.0,29.97,NNE,19,3.0,5.0,88,0.00,,,0.01,weatherlink.com 1.10,2013-03-14 12:53:00,
2013-03-14 06:08:00,53.1,50.0,29.98,North,360,1.0,4.0,88,0.00,,,0.01,weatherlink.com 1.10,2013-03-14 13:08:00,
2013-03-14 06:23:00,52.4,50.0,29.98,SSW,205,0.0,2.0,91,0.00,,,0.01,weatherlink.com 1.10,2013-03-14 13:23:00,
2013-03-14 06:38:00,52.1,50.0,29.97,NE,46,0.0,3.0,91,0.00,,,0.01,weatherlink.com 1.10,2013-03-14 13:38:00,
2013-03-14 06:53:00,52.5,50.0,29.96,SE,134,5.0,6.0,90,0.00,,,0.01,weatherlink.com 1.10,2013-03-14 13:53:00,
2013-03-14 07:08:00,53.9,50.0,29.96,SSE,159,4.0,8.0,87,0.00,,,0.01,weatherlink.com 1.10,2013-03-14 14:08:00,
2013-03-14 07:23:00,53.7,50.0,29.97,South,185,5.0,7.0,86,0.00,,,0.01,weatherlink.com 1.10,2013-03-14 14:23:00,
2013-03-14 07:38:00,54.2,50.0,29.98,SSW,200,8.0,10.0,85,0.00,,,0.01,weatherlink.com 1.10,2013-03-14 14:38:00,
2013-03-14 07:53:00,54.2,50.0,29.98,South,173,7.0,15.0,84,0.00,,,0.01,weatherlink.com 1.10,2013-03-14 14:53:00,
2013-03-14 08:08:00,53.2,49.0,29.96,SSE,165,4.0,13.0,86,0.00,,,0.01,weatherlink.com 1.10,2013-03-14 15:08:00,
2013-03-14 08:23:00,53.2,50.0,29.96,South,169,5.0,14.0,87,0.00,,,0.01,weatherlink.com 1.10,2013-03-14 15:23:00,
2013-03-14 08:38:00,54.0,49.0,29.97,SSE,158,8.0,15.0,84,0.00,,,0.01,weatherlink.com 1.10,2013-03-14 15:38:00,
2013-03-14 08:53:00,53.9,49.0,29.98,SSW,192,7.0,17.0,84,0.00,,,0.01,weatherlink.com 1.10,2013-03-14 15:53:00,
2013-03-14 09:08:00,53.7,49.0,29.98,SSE,151,11.0,14.0,84,0.00,,,0.01,weatherlink.com 1.10,2013-03-14 16:08:00,
2013-03-14 09:23:00,53.2,49.0,29.98,SSE,149,8.0,14.0,84,0.00,,,0.01,weatherlink.com 1.10,2013-03-14 16:23:00,
2013-03-14 09:38:00,53.5,49.0,30.00,SSE,156,9.0,13.0,83,0.00,,,0.01,weatherlink.com 1.10,2013-03-14 16:38:00,
2013-03-14 09:53:00,53.7,48.0,30.00,SSE,165,3.0,12.0,81,0.00,,,0.01,weatherlink.com 1.10,2013-03-14 16:53:00,
2013-03-14 10:08:00,53.5,48.0,30.00,SSE,161,8.0,12.0,81,0.00,,,0.01,weatherlink.com 1.10,2013-03-14 17:08:00,
2013-03-14 10:23:00,53.5,49.0,30.00,South,175,12.0,16.0,83,0.00,,,0.01,weatherlink.com 1.10,2013-03-14 17:23:00,
2013-03-14 10:38:00,53.3,49.0,30.00,SSE,163,7.0,15.0,85,0.00,,,0.01,weatherlink.com 1.10,2013-03-14 17:38:00,
2013-03-14 10:53:00,52.8,49.0,29.99,SSE,156,7.0,15.0,86,0.00,,,0.01,weatherlink.com 1.10,2013-03-14 17:53:00,
2013-03-14 11:08:00,53.2,49.0,29.99,SE,124,10.0,17.0,86,0.00,,,0.01,weatherlink.com 1.10,2013-03-14 18:08:00,
2013-03-14 11:23:00,53.6,50.0,29.99,South,171,5.0,18.0,86,0.00,,,0.01,weatherlink.com 1.10,2013-03-14 18:23:00,
2013-03-14 11:38:00,54.2,50.0,29.99,SSE,164,7.0,14.0,84,0.00,,,0.01,weatherlink.com 1.10,2013-03-14 18:38:00,
2013-03-14 11:53:00,54.4,49.0,29.99,SSE,157,10.0,13.0,83,0.00,,,0.01,weatherlink.com 1.10,2013-03-14 18:53:00,
2013-03-14 12:09:00,54.4,50.0,29.98,SSE,160,7.0,13.0,84,0.00,,,0.01,weatherlink.com 1.10,2013-03-14 19:09:00,
2013-03-14 12:23:00,54.6,50.0,29.98,WSW,238,10.0,11.0,84,0.00,,,0.01,weatherlink.com 1.10,2013-03-14 19:23:00,
2013-03-14 12:38:00,55.3,50.0,29.98,SSW,213,7.0,14.0,82,0.00,,,0.01,weatherlink.com 1.10,2013-03-14 19:38:00,
2013-03-14 12:53:00,55.4,50.0,29.99,SSE,166,14.0,18.0,81,0.00,,,0.01,weatherlink.com 1.10,2013-03-14 19:53:00,
2013-03-14 13:08:00,54.5,49.0,29.99,SSE,160,8.0,19.0,83,0.00,,,0.01,weatherlink.com 1.10,2013-03-14 20:08:00,
2013-03-14 13:23:00,54.1,50.0,29.98,SSE,152,6.0,16.0,85,0.00,,,0.01,weatherlink.com 1.10,2013-03-14 20:23:00,
2013-03-14 13:38:00,53.9,50.0,29.98,SSW,208,10.0,15.0,87,0.01,,,0.02,weatherlink.com 1.10,2013-03-14 20:38:00,
2013-03-14 13:53:00,53.7,50.0,29.98,SSE,151,11.0,16.0,87,0.03,,,0.04,weatherlink.com 1.10,2013-03-14 20:53:00,
2013-03-14 14:08:00,53.7,50.0,29.98,SSE,164,7.0,14.0,86,0.04,,,0.05,weatherlink.com 1.10,2013-03-14 21:08:00,
2013-03-14 14:23:00,53.2,50.0,29.98,SSE,148,8.0,12.0,88,0.04,,,0.05,weatherlink.com 1.10,2013-03-14 21:23:00,
2013-03-14 14:38:00,52.6,50.0,29.97,SSE,148,6.0,13.0,90,0.03,,,0.05,weatherlink.com 1.10,2013-03-14 21:38:00,
2013-03-14 14:53:00,53.0,50.0,29.97,SE,137,12.0,13.0,88,0.01,,,0.05,weatherlink.com 1.10,2013-03-14 21:53:00,
2013-03-14 15:08:00,53.1,49.0,29.97,SE,144,8.0,13.0,85,0.00,,,0.05,weatherlink.com 1.10,2013-03-14 22:08:00,
2013-03-14 15:23:00,52.7,48.0,29.97,South,171,6.0,14.0,84,0.00,,,0.05,weatherlink.com 1.10,2013-03-14 22:23:00,
2013-03-14 15:38:00,52.7,47.0,29.98,SSW,196,5.0,11.0,82,0.00,,,0.05,weatherlink.com 1.10,2013-03-14 22:38:00,
2013-03-14 15:53:00,51.8,48.0,29.98,SE,135,9.0,11.0,85,0.01,,,0.06,weatherlink.com 1.10,2013-03-14 22:53:00,
2013-03-14 16:08:00,52.0,47.0,29.99,SSE,156,8.0,10.0,83,0.01,,,0.06,weatherlink.com 1.10,2013-03-14 23:08:00,
2013-03-14 16:23:00,51.5,48.0,29.99,SSE,159,4.0,14.0,86,0.01,,,0.06,weatherlink.com 1.10,2013-03-14 23:23:00,
2013-03-14 16:38:00,51.5,48.0,29.99,SE,138,3.0,8.0,86,0.01,,,0.06,weatherlink.com 1.10,2013-03-14 23:38:00,
2013-03-14 16:53:00,51.0,48.0,29.99,SSE,153,6.0,11.0,88,0.00,,,0.06,weatherlink.com 1.10,2013-03-14 23:53:00,
2013-03-14 17:08:00,51.1,48.0,29.98,South,173,3.0,11.0,88,0.00,,,0.06,weatherlink.com 1.10,2013-03-15 00:08:00,
2013-03-14 17:23:00,51.4,48.0,29.98,SSE,160,7.0,11.0,87,0.00,,,0.06,weatherlink.com 1.10,2013-03-15 00:23:00,
2013-03-14 17:38:00,52.2,48.0,29.99,SSW,202,7.0,20.0,84,0.00,,,0.06,weatherlink.com 1.10,2013-03-15 00:38:00,
2013-03-14 17:53:00,52.1,47.0,29.99,SSE,154,10.0,14.0,84,0.00,,,0.06,weatherlink.com 1.10,2013-03-15 00:53:00,
2013-03-14 18:08:00,51.6,47.0,30.00,SSE,158,4.0,14.0,85,0.00,,,0.06,weatherlink.com 1.10,2013-03-15 01:08:00,
2013-03-14 18:23:00,51.2,47.0,30.00,SSE,167,7.0,11.0,86,0.01,,,0.07,weatherlink.com 1.10,2013-03-15 01:23:00,
2013-03-14 18:38:00,51.0,47.0,30.01,South,188,5.0,11.0,86,0.01,,,0.07,weatherlink.com 1.10,2013-03-15 01:38:00,
2013-03-14 18:53:00,51.0,47.0,30.01,South,180,5.0,12.0,87,0.01,,,0.07,weatherlink.com 1.10,2013-03-15 01:53:00,
2013-03-14 19:08:00,50.6,47.0,30.02,SSE,165,7.0,10.0,87,0.03,,,0.09,weatherlink.com 1.10,2013-03-15 02:08:00,
2013-03-14 19:23:00,50.0,47.0,30.02,SSE,153,8.0,11.0,89,0.03,,,0.10,weatherlink.com 1.10,2013-03-15 02:23:00,
2013-03-14 19:38:00,49.9,47.0,30.03,SSE,148,5.0,10.0,89,0.04,,,0.11,weatherlink.com 1.10,2013-03-15 02:38:00,
2013-03-14 19:53:00,49.8,47.0,30.02,SSE,160,4.0,13.0,89,0.04,,,0.11,weatherlink.com 1.10,2013-03-15 02:53:00,
2013-03-14 20:08:00,49.9,47.0,30.03,SSW,194,4.0,11.0,88,0.02,,,0.11,weatherlink.com 1.10,2013-03-15 03:08:00,
2013-03-14 20:23:00,50.1,46.0,30.03,SSE,163,11.0,14.0,87,0.01,,,0.11,weatherlink.com 1.10,2013-03-15 03:23:00,
2013-03-14 20:38:00,50.3,46.0,30.04,SSW,193,8.0,14.0,86,0.00,,,0.11,weatherlink.com 1.10,2013-03-15 03:38:00,
2013-03-14 20:53:00,50.2,46.0,30.03,SSE,158,7.0,11.0,85,0.00,,,0.11,weatherlink.com 1.10,2013-03-15 03:53:00,
2013-03-14 21:08:00,50.4,46.0,30.04,South,191,7.0,13.0,84,0.00,,,0.11,weatherlink.com 1.10,2013-03-15 04:08:00,
2013-03-14 21:24:00,50.4,45.0,30.05,SSE,168,4.0,11.0,83,0.00,,,0.11,weatherlink.com 1.10,2013-03-15 04:24:00,
2013-03-14 21:39:00,50.3,46.0,30.05,SE,146,7.0,14.0,84,0.00,,,0.11,weatherlink.com 1.10,2013-03-15 04:39:00,
2013-03-14 21:54:00,50.1,46.0,30.05,SSE,157,7.0,15.0,84,0.00,,,0.11,weatherlink.com 1.10,2013-03-15 04:54:00,
2013-03-14 22:24:00,49.7,46.0,30.07,SSE,159,8.0,12.0,86,0.00,,,0.11,weatherlink.com 1.10,2013-03-15 05:24:00,
2013-03-14 22:39:00,49.3,46.0,30.07,SSE,159,9.0,10.0,88,0.01,,,0.12,weatherlink.com 1.10,2013-03-15 05:39:00,
2013-03-14 22:54:00,49.1,46.0,30.07,SSE,161,8.0,14.0,88,0.01,,,0.12,weatherlink.com 1.10,2013-03-15 05:54:00,
2013-03-14 23:09:00,49.4,46.0,30.07,South,170,11.0,15.0,87,0.01,,,0.12,weatherlink.com 1.10,2013-03-15 06:09:00,
2013-03-14 23:24:00,49.2,46.0,30.08,SE,146,5.0,13.0,88,0.01,,,0.12,weatherlink.com 1.10,2013-03-15 06:24:00,
2013-03-14 23:39:00,49.0,46.0,30.08,SSE,165,5.0,14.0,89,0.01,,,0.13,weatherlink.com 1.10,2013-03-15 06:39:00,
2013-03-14 23:54:00,49.1,46.0,30.09,SSE,159,8.0,12.0,89,0.01,,,0.13,weatherlink.com 1.10,2013-03-15 06:54:00,